Content
SEND FEEDBACK

Daily
Averages
Monthly
Summary
French Polynesia

PAPEETE, FRENCH POLYNESIA


Home > Oceania > French Polynesia
Elevation: 7 feet     Latitude: 17 33S     Longitude: 149 36W

WEATHER
 
SELECT A DAY
Number of Records: 208,298;   Date Range: 6/30/96 - 7/30/14
 
SHARE

PRINT THIS DATA

[ ← Previous Day ]
WEATHER ALMANAC - DECEMBER 8, 2013
[ Next Day → ]
[ °C ]   °F
Weather ElementAverageHighLow
Temperature82.4 °F87.8 °F (12:00 pm)77 °F (12:30 am)
Dewpoint71.6 °F75.2 °F (5:30 pm)68 °F (5:30 am)
Humidity68.8 %79 % (6:00 pm)54 % (11:00 am)
Barometer29.92 in29.96 in (8:00 am)29.86 in (2:30 am)
Wind Speed4 mph11.5 mph (6:00 pm)
Weather ElementAverage
Visibility7.5 mi
Wind DirectionESE (127.1 °)

Weather ElementTotal
Precipitation---
Cooling Degree Days17.4 (Base 65)
Growing Degree Days32.4 (Base 50)
Averaged from 55 records on December 8, 2013
WEATHER CONDITIONS BREAKOUT
WIND DIRECTION BREAKOUT
WEATHER BY HOUR - DECEMBER 8, 2013
[ °C ]   °F
Local TimeTemperatureDewpointHumidityBarometerVisibilityWind DirectionWind SpeedGust SpeedPrecipitationEventsConditions
12:30 AM77.0 °F69.8 °F78 %29.89 in6.2 miEast (100°)4.6 mphScattered Clouds
1:00 AM77.0 °F69.8 °F78 %29.89 in6.2 miEast (90°)3.5 mphScattered Clouds
1:30 AM77.0 °F69.8 °F78 %29.89 in6.2 miVariable3.5 mphScattered Clouds
2:00 AM77.0 °F70.0 °F73 %29.89 in12.0 miNE (50°)6.7 mphScattered Clouds
2:00 AM77.0 °F69.8 °F78 %29.89 in6.2 miNE (50°)3.5 mphScattered Clouds
2:30 AM77.0 °F69.8 °F78 %29.86 in6.2 miENE (60°)3.5 mphScattered Clouds
3:00 AM77.0 °F69.8 °F78 %29.86 in6.2 miENE (70°)4.6 mphScattered Clouds
3:30 AM77.0 °F69.8 °F78 %29.89 in6.2 miENE (70°)5.8 mph
4:00 AM77.0 °F69.8 °F78 %29.89 in6.2 miENE (60°)5.8 mph
4:30 AM77.0 °F69.8 °F78 %29.89 in6.2 miENE (70°)5.8 mph
5:00 AM78.0 °F70.0 °F69 %29.90 in37.0 miESE (110°)3.5 mphClear
5:00 AM77.0 °F69.8 °F78 %29.89 in6.2 miESE (110°)3.5 mph
5:30 AM77.0 °F68.0 °F74 %29.89 in6.2 miVariable3.5 mph
6:00 AM77.0 °F69.8 °F78 %29.92 in6.2 miVariable2.3 mphMostly Cloudy
6:30 AM80.6 °F69.8 °F70 %29.92 in6.2 miCalmMostly Cloudy
7:00 AM82.4 °F71.6 °F70 %29.95 in6.2 miWSW (240°)2.3 mphMostly Cloudy
7:30 AM84.2 °F71.6 °F66 %29.95 in6.2 miSW (220°)3.5 mphMostly Cloudy
8:00 AM84.0 °F73.0 °F62 %29.96 in12.0 miWSW (240°)3.5 mphPartly Cloudy
8:00 AM84.2 °F73.4 °F70 %29.95 in6.2 miWSW (240°)3.5 mphMostly Cloudy
8:30 AM84.2 °F73.4 °F70 %29.95 in6.2 miWSW (250°)4.6 mphMostly Cloudy
9:00 AM84.2 °F71.6 °F66 %29.95 in6.2 miWest (270°)4.6 mphMostly Cloudy
9:30 AM86.0 °F71.6 °F62 %29.95 in6.2 miVariable3.5 mphMostly Cloudy
10:00 AM86.0 °F71.6 °F62 %29.95 in6.2 miWNW (300°)3.5 mphScattered Clouds
10:30 AM86.0 °F71.6 °F62 %29.95 in6.2 miWest (260°)4.6 mphScattered Clouds
11:00 AM87.0 °F73.0 °F54 %29.95 in12.0 miWest (270°)4.6 mphScattered Clouds
11:00 AM86.0 °F73.4 °F66 %29.95 in6.2 miWest (270°)4.6 mphScattered Clouds
11:30 AM86.0 °F73.4 °F66 %29.92 in6.2 miWest (260°)3.5 mphScattered Clouds
12:00 PM87.8 °F73.4 °F62 %29.92 in6.2 miWest (280°)4.6 mphScattered Clouds
12:30 PM87.8 °F73.4 °F62 %29.92 in6.2 miWSW (240°)5.8 mphScattered Clouds
1:00 PM87.8 °F71.6 °F58 %29.92 in6.2 miWSW (240°)4.6 mphScattered Clouds
1:30 PM87.8 °F73.4 °F62 %29.89 in6.2 miWSW (240°)4.6 mphScattered Clouds
2:00 PM87.0 °F73.0 °F55 %29.90 in12.0 miWest (270°)6.7 mphPartly Cloudy
2:00 PM87.8 °F73.4 °F62 %29.89 in6.2 miVariable3.5 mphScattered Clouds
2:30 PM87.8 °F73.4 °F62 %29.89 in6.2 miWSW (240°)4.6 mphScattered Clouds
3:00 PM87.8 °F73.4 °F62 %29.89 in6.2 miVariable2.3 mphScattered Clouds
3:30 PM87.8 °F73.4 °F62 %29.86 in6.2 miVariable2.3 mphScattered Clouds
4:00 PM86.0 °F73.4 °F66 %29.86 in6.2 miNorth (360°)4.6 mphMostly Cloudy
4:30 PM84.2 °F73.4 °F70 %29.86 in6.2 miNE (40°)5.8 mphMostly Cloudy
5:00 PM84.0 °F74.0 °F64 %29.89 in12.0 miNNE (30°)5.8 mphMostly Cloudy
5:00 PM84.2 °F73.4 °F70 %29.89 in6.2 miNNE (30°)5.8 mphMostly Cloudy
5:30 PM84.2 °F75.2 °F74 %29.89 in6.2 miNNE (30°)6.9 mphMostly Cloudy
6:00 PM82.4 °F75.2 °F79 %29.89 in6.2 miNE (40°)11.5 mphScattered Clouds
6:30 PM82.4 °F71.6 °F70 %29.92 in6.2 miVariable4.6 mphPartly Cloudy
7:00 PM82.4 °F71.6 °F70 %29.92 in6.2 miSSE (150°)2.3 mphScattered Clouds
7:30 PM82.4 °F71.6 °F70 %29.92 in6.2 miSouth (180°)3.5 mphMostly Cloudy
8:00 PM82.0 °F71.0 °F60 %29.94 in12.0 miSSW (200°)6.7 mphMostly Cloudy
8:00 PM82.4 °F69.8 °F66 %29.92 in6.2 miSSW (200°)3.5 mphMostly Cloudy
8:30 PM82.4 °F69.8 °F66 %29.95 in6.2 miCalmMostly Cloudy
9:00 PM82.4 °F69.8 °F66 %29.95 in6.2 miSouth (170°)1.2 mphMostly Cloudy
9:30 PM80.6 °F69.8 °F70 %29.95 in6.2 miVariable2.3 mphScattered Clouds
10:00 PM80.6 °F71.6 °F74 %29.95 in6.2 miVariable1.2 mphScattered Clouds
10:30 PM80.6 °F71.6 °F74 %29.95 in6.2 miVariable2.3 mphScattered Clouds
11:00 PM80.0 °F71.0 °F66 %29.96 in12.0 miSouth (190°)2.3 mphScattered Clouds
11:00 PM80.6 °F69.8 °F70 %29.95 in6.2 miSSW (200°)2.3 mphPartly Cloudy
11:30 PM80.6 °F71.6 °F74 %29.95 in6.2 miVariable3.5 mphPartly Cloudy
Hourly data recorded from NTAA, located miles away from Papeete, French Polynesia







STORIES FROM OUR PARTNERS